[[{"header":{"parameterUnit":"m.s-1","parameterCategory":1,"la1":30.2991,"la2":30.254,"lo1":-89.0895,"lo2":-89.0444,"dy":0.0017,"dx":0.0017,"nx":28,"ny":28,"refTime":"2026-02-11T09:00:00:Z","depth":0,"parameterNumber":2,"parameterNumberName":"U-component_of_WINDS"},"data":[0,0,0,0,0,0,0,0,0,0,0,0,0,0,0,0,0,0,0,0,0,0,0,0,0,0,0,0,0,0,0,0,0,0,0,0,0,0,0,0,0,0,0,0,0,0,0,0,0,0,0,0,0,0,0,0,0,0,0.2584,0.2583,0,0.2545,0.2544,0.2544,0.2546,0.2547,0.2547,0.2548,0.2504,0.2502,0.2501,0,0,0,0,0,0,0,0,0,0,0,0,0,0.2656,0.2655,0.2584,0.2583,0.2583,0.2545,0.2544,0.2544,0.2546,0.2547,0.2547,0.2548,0.2505,0.2503,0.2501,0,0,0,0,0,0,0,0,0,0,0,0,0,0.2622,0.2655,0.2584,0.258,0.2579,0.2545,0.2544,0.2544,0.2546,0.2547,0.2548,0.2548,0.2505,0.2503,0.25,0.2467,0,0,0.2492,0.2491,0,0,0,0,0,0,0,0,0.2624,0.2619,0.2581,0.258,0.2579,0.2551,0.2554,0.2518,0.2546,0.2558,0.2548,0.2549,0.2519,0.2515,0.2506,0.2465,0.2463,0.2492,0.2491,0.249,0.2489,0,0,0,0,0,0,0,0.2626,0.2621,0.2568,0.258,0.2579,0.2578,0.2574,0.2547,0.2534,0.2557,0.2557,0.2553,0.2518,0.2508,0.2505,0.2463,0.2492,0.249,0.2488,0.2487,0.2391,0.239,0,0,0,0,0,0,0.263,0.2623,0.257,0.2567,0.2604,0.2576,0.2572,0.2559,0.2534,0.2531,0.2552,0.2553,0.2512,0.2508,0.2503,0.2461,0.249,0.2487,0.2486,0.2392,0.239,0.2389,0,0,0,0,0,0,0.2632,0.2625,0.2571,0.2595,0.2588,0.2574,0.256,0.2558,0.2548,0.2531,0.2528,0.2544,0.2513,0.2507,0.2476,0.246,0.2486,0.2484,0.2393,0.2391,0.239,0.2377,0,0,0,0,0,0,0.2634,0.2626,0.2614,0.2595,0.2587,0.2546,0.2559,0.2557,0.2544,0.2545,0.2523,0.252,0.2513,0.248,0.2473,0.2457,0.2482,0.2394,0.2392,0.239,0.2379,0.2376,0.2373,0,0,0,0,0,0.2636,0.2612,0.2613,0.2607,0.2572,0.2545,0.254,0.2534,0.2543,0.253,0.2519,0.252,0.2463,0.2477,0.2469,0.2452,0.2395,0.2393,0.239,0.2381,0.2376,0.2373,0,0,0,0,0,0,0.2628,0.2609,0.2611,0.258,0.2564,0.2545,0.2529,0.253,0.251,0.2512,0.2504,0.2499,0.2467,0.2457,0.2472,0.2417,0.243,0.2426,0.2425,0.2421,0.2418,0.242,0.248,0,0,0,0,0,0.2623,0.2604,0.2588,0.2562,0.2554,0.2543,0.2531,0.2527,0.251,0.2503,0.249,0.2472,0.245,0.2435,0.2414,0.2379,0.2372,0.2363,0.2359,0.2357,0.2353,0.2331,0.2326,0.2382,0.2382,0.2382,0,0,0.2612,0.2599,0.2587,0.256,0.2547,0.2526,0.2537,0.2514,0.2498,0.2499,0.2469,0.2459,0.2438,0.2404,0.2389,0.2394,0.2336,0.2354,0.2352,0.2349,0.2328,0.2323,0.2318,0.238,0.238,0.238,0,0,0.2579,0.2569,0.2545,0.2532,0.2514,0.2506,0.2501,0.2482,0.2475,0.2445,0.2445,0.2425,0.2388,0.2373,0.236,0.2322,0.2322,0.2315,0.2297,0.2276,0.2272,0.2268,0.2252,0.2246,0.2312,0.2312,0.2312,0,0.2567,0.2536,0.2532,0.2509,0.2496,0.2498,0.2473,0.2461,0.2435,0.2426,0.2433,0.2385,0.2372,0.2333,0.2324,0.2315,0.2306,0.2317,0.2273,0.2269,0.2265,0.2249,0.2244,0.2311,0.2311,0.2311,0.2311,0,0.252,0.2499,0.2482,0.2458,0.2444,0.242,0.2411,0.2397,0.2395,0.2386,0.2354,0.2339,0.2313,0.2304,0.2302,0.2265,0.2269,0.2275,0.2287,0.2259,0.2244,0.2238,0.231,0.231,0.231,0.231,0,0,0.248,0.2456,0.2449,0.2438,0.2418,0.24,0.2376,0.2352,0.2339,0.2321,0.2299,0.2267,0.2272,0.2258,0.2254,0.2236,0.2204,0.2244,0.2243,0.2234,0.2159,0.2153,0.2146,0.2205,0.2204,0.2203,0.216,0,0.2444,0.2402,0.2398,0.2359,0.2338,0.234,0.2318,0.2302,0.2294,0.2273,0.2264,0.224,0.225,0.2241,0.2224,0.2211,0.2188,0.2215,0.2181,0.218,0.2184,0.2139,0.2133,0.2093,0.2154,0.2153,0.2153,0,0.2396,0.2378,0.2337,0.2319,0.231,0.2291,0.2268,0.2249,0.2231,0.2226,0.221,0.2208,0.2181,0.2196,0.2157,0.2175,0.2162,0.2154,0.2152,0.2146,0.2163,0.2129,0.208,0.2073,0.2144,0.2145,0.2145,0,0.2367,0.2333,0.2304,0.2295,0.2273,0.2259,0.2249,0.2232,0.2218,0.2198,0.2188,0.2165,0.2151,0.2133,0.2124,0.2137,0.2085,0.21,0.2077,0.2077,0.2064,0.2065,0.2009,0.206,0.206,0.206,0.206,0,0.2326,0.23,0.2291,0.2273,0.2244,0.2239,0.221,0.22,0.2185,0.2163,0.2164,0.2144,0.2135,0.2112,0.2106,0.2073,0.2068,0.2061,0.2059,0.2059,0.206,0.2048,0.2049,0.2059,0.2059,0.2059,0.206,0,0.2288,0.2282,0.2249,0.2232,0.2227,0.2206,0.219,0.2171,0.2164,0.2137,0.213,0.2117,0.2091,0.2081,0.2049,0.2044,0.2005,0.2007,0.2011,0.201,0.1987,0.1989,0.192,0.191,0.197,0.197,0.1969,0,0.2261,0.2241,0.2222,0.2208,0.2198,0.2176,0.2162,0.2157,0.2141,0.2118,0.2102,0.2076,0.2055,0.2012,0.1999,0.1974,0.1973,0.1951,0.1969,0.1969,0.1969,0.1969,0.1966,0.1946,0.1946,0.1945,0.1945,0,0.2212,0.2209,0.219,0.2168,0.2151,0.2134,0.2116,0.2105,0.2097,0.2079,0.2053,0.2037,0.2004,0.1977,0.1951,0.1939,0.1939,0.194,0.1933,0.1931,0.1934,0.1929,0.1999,0.1941,0.1941,0.1941,0.1942,0.1942,0.2176,0.2158,0.2142,0.2119,0.2106,0.209,0.2071,0.2062,0.204,0.2014,0.2012,0.1983,0.1964,0.1929,0.1916,0.1892,0.1898,0.1888,0.1885,0.1882,0.1879,0.194,0.1887,0.1888,0.1888,0.1888,0.1888,0,0.2125,0.2115,0.2094,0.2071,0.2052,0.2057,0.2038,0.2022,0.1997,0.198,0.1959,0.1928,0.1902,0.1887,0.186,0.1843,0.1843,0.1836,0.1836,0.1832,0.1877,0.1884,0.1837,0.1837,0.1837,0.1837,0.1837,0.1837,0.2096,0.2065,0.2061,0.2023,0.2013,0.1985,0.1973,0.1958,0.1944,0.1909,0.1888,0.188,0.1862,0.1835,0.181,0.1806,0.1795,0.1788,0.1784,0.1825,0.183,0.1835,0.1841,0.1786,0.1786,0.1741,0.1741,0.174]},{"header":{"parameterUnit":"m.s-1","parameterCategory":1,"la1":30.2991,"la2":30.254,"lo1":-89.0895,"lo2":-89.0444,"dy":0.0017,"dx":0.0017,"nx":28,"ny":28,"refTime":"2026-02-11T09:00:00:Z","depth":0,"parameterNumber":3,"parameterNumberName":"V-component_of_WINDS"},"data":[0,0,0,0,0,0,0,0,0,0,0,0,0,0,0,0,0,0,0,0,0,0,0,0,0,0,0,0,0,0,0,0,0,0,0,0,0,0,0,0,0,0,0,0,0,0,0,0,0,0,0,0,0,0,0,0,0,0,0.7757,0.7757,0,0.7788,0.7788,0.7789,0.7822,0.7822,0.7823,0.7823,0.7852,0.7852,0.7853,0,0,0,0,0,0,0,0,0,0,0,0,0,0.7721,0.7722,0.7757,0.7757,0.7758,0.7788,0.7788,0.7789,0.7822,0.7822,0.7823,0.7824,0.7852,0.7852,0.7853,0,0,0,0,0,0,0,0,0,0,0,0,0,0.7743,0.7722,0.7757,0.7778,0.778,0.7788,0.7788,0.7789,0.7822,0.7822,0.7823,0.7824,0.7852,0.7852,0.7853,0.7841,0,0,0.7854,0.7854,0,0,0,0,0,0,0,0,0.7742,0.7744,0.7774,0.7776,0.7779,0.7802,0.7786,0.7806,0.7822,0.7806,0.7823,0.7824,0.7834,0.7836,0.7841,0.7843,0.7844,0.7854,0.7854,0.7855,0.7855,0,0,0,0,0,0,0,0.774,0.7743,0.7769,0.7775,0.7777,0.7784,0.7788,0.779,0.7816,0.7807,0.781,0.7813,0.7836,0.784,0.7841,0.7844,0.7854,0.7855,0.7855,0.7855,0.7835,0.7834,0,0,0,0,0,0,0.7736,0.7742,0.7768,0.777,0.7762,0.7784,0.7789,0.7794,0.7816,0.782,0.7812,0.7815,0.7839,0.7841,0.7843,0.7829,0.7855,0.7855,0.7855,0.7836,0.7835,0.7834,0,0,0,0,0,0,0.7735,0.7738,0.7767,0.7756,0.7761,0.7784,0.779,0.7794,0.7798,0.782,0.7824,0.7812,0.784,0.7842,0.7841,0.783,0.7855,0.7856,0.7837,0.7836,0.7834,0.7802,0,0,0,0,0,0,0.7734,0.7738,0.7735,0.7756,0.7761,0.7766,0.7789,0.7794,0.7799,0.7802,0.7821,0.7824,0.784,0.784,0.7841,0.7831,0.7856,0.7838,0.7836,0.7835,0.7804,0.7799,0.7796,0,0,0,0,0,0.7733,0.7724,0.7734,0.7737,0.7758,0.7765,0.7768,0.7787,0.7798,0.7795,0.7808,0.7824,0.7831,0.784,0.7841,0.7831,0.7839,0.7837,0.7835,0.7805,0.78,0.7796,0,0,0,0,0,0,0.77,0.7727,0.7739,0.7738,0.7749,0.7771,0.7767,0.7781,0.7789,0.7791,0.7814,0.7818,0.7813,0.7822,0.7831,0.782,0.7837,0.7835,0.7814,0.7809,0.7805,0.7802,0.7856,0,0,0,0,0,0.7693,0.7698,0.7721,0.7717,0.7722,0.7743,0.7747,0.7761,0.7773,0.7778,0.7791,0.7801,0.7806,0.7808,0.7814,0.7805,0.7808,0.7799,0.7795,0.7792,0.7789,0.7783,0.7778,0.7828,0.7828,0.7828,0,0,0.7678,0.7693,0.7695,0.7711,0.7721,0.7724,0.7747,0.775,0.7751,0.7778,0.7777,0.7787,0.78,0.7794,0.7793,0.7802,0.7776,0.7789,0.7786,0.7786,0.778,0.7776,0.7771,0.7827,0.7827,0.7827,0,0,0.7652,0.7665,0.7662,0.7672,0.7687,0.7701,0.77,0.772,0.7727,0.7727,0.7747,0.7748,0.7756,0.7763,0.7768,0.7742,0.7756,0.7743,0.7721,0.7715,0.7711,0.7707,0.7695,0.7691,0.7741,0.7741,0.7741,0,0.7631,0.7637,0.7659,0.7659,0.7664,0.7689,0.7685,0.7693,0.7709,0.7711,0.7722,0.773,0.7741,0.7736,0.7729,0.7733,0.7731,0.774,0.771,0.7707,0.7704,0.7692,0.7688,0.7739,0.7739,0.774,0.774,0,0.7609,0.7612,0.7608,0.7623,0.7628,0.7626,0.7646,0.7648,0.7661,0.7673,0.7671,0.7684,0.7691,0.7691,0.7704,0.7687,0.7692,0.7706,0.7723,0.7697,0.7686,0.7683,0.7737,0.7737,0.7738,0.7738,0,0,0.7564,0.759,0.7587,0.7593,0.7611,0.7613,0.7612,0.7619,0.7619,0.7629,0.7626,0.7631,0.7643,0.7649,0.7662,0.7657,0.7631,0.767,0.7671,0.7661,0.7611,0.7599,0.7594,0.7641,0.7641,0.764,0.7609,0,0.7539,0.7538,0.7557,0.755,0.7552,0.7575,0.7573,0.7582,0.7593,0.7595,0.7607,0.7609,0.7626,0.7629,0.7624,0.7636,0.7621,0.7638,0.7637,0.7636,0.7631,0.7589,0.7577,0.7547,0.7605,0.7605,0.7604,0,0.751,0.7518,0.7512,0.7527,0.7529,0.7527,0.7534,0.7536,0.7546,0.7554,0.7559,0.7574,0.7571,0.7589,0.7584,0.7595,0.7595,0.76,0.7599,0.7598,0.7617,0.7585,0.7538,0.7533,0.7599,0.7599,0.7599,0,0.7475,0.7484,0.748,0.7485,0.7504,0.7502,0.7509,0.752,0.7523,0.7528,0.753,0.7535,0.7537,0.754,0.7555,0.7567,0.7547,0.7566,0.7551,0.755,0.7545,0.7544,0.7495,0.7548,0.7548,0.7548,0.7548,0,0.7444,0.7439,0.7464,0.7462,0.7456,0.7476,0.7469,0.7479,0.7488,0.7486,0.7506,0.7504,0.7525,0.7524,0.7536,0.7528,0.753,0.7534,0.7537,0.7531,0.753,0.753,0.7532,0.7547,0.7547,0.7548,0.7548,0,0.7403,0.7421,0.7418,0.7436,0.744,0.7434,0.7448,0.7446,0.7457,0.7455,0.7455,0.7473,0.7473,0.7489,0.7492,0.75,0.7486,0.7494,0.7482,0.7484,0.7467,0.7467,0.7414,0.7407,0.7467,0.7466,0.7466,0,0.7382,0.7378,0.7395,0.7396,0.7402,0.7403,0.7406,0.7425,0.7426,0.7436,0.7432,0.7433,0.7436,0.7434,0.7446,0.7448,0.7454,0.7436,0.7455,0.7448,0.7451,0.745,0.7448,0.7431,0.743,0.743,0.7429,0,0.7341,0.7349,0.7353,0.7358,0.736,0.7365,0.7371,0.737,0.7391,0.7391,0.7392,0.7393,0.7396,0.7396,0.74,0.7406,0.742,0.7423,0.7419,0.7412,0.7405,0.7406,0.7469,0.7424,0.7425,0.7425,0.7425,0.7425,0.7308,0.7304,0.7315,0.7317,0.7324,0.7328,0.7326,0.7337,0.7338,0.7342,0.7353,0.7351,0.7358,0.7365,0.7369,0.7366,0.7375,0.737,0.7369,0.7366,0.7362,0.7407,0.7367,0.7367,0.7368,0.7368,0.7368,0,0.7266,0.7273,0.7275,0.7283,0.7283,0.7298,0.7305,0.7304,0.7302,0.7308,0.731,0.7308,0.7308,0.732,0.7321,0.7316,0.7322,0.7315,0.7314,0.7315,0.7355,0.7357,0.731,0.731,0.731,0.731,0.731,0.731,0.7244,0.7238,0.7247,0.7243,0.7251,0.7249,0.7251,0.7255,0.726,0.7257,0.7258,0.7265,0.7273,0.7274,0.7273,0.7277,0.7275,0.7265,0.727,0.7307,0.7313,0.7318,0.732,0.7265,0.7265,0.7229,0.7229,0.7229]}]]